contact:dominique.lefevre@mio.osupytheas.fr, maurice.libes@osupytheas.fr, didier.mallarino@osupytheas.fr
Project:EMSO http://www.emso-fr.org/EMSO-France
Depth: 2436.0 m
Title:EMSO Ligure Ouest : Data MII capteur MICROCAT
DateTime_Computer,Latitude,Longitude,Temperature,Conductivity,Pressure,DateTime_Instrument
DateTime_Computer,Latitude,Longitude,degC,S m-1,dbar,DateTime_Instrument
2019-07-19T00:02:20Z,42.805,6.029,13.3014,4.60064,2469.96,2019-7-19T02:02:39Z
2019-07-19T00:05:23Z,42.805,6.029,13.3039,4.60017,2469.984,2019-7-19T02:05:42Z
2019-07-19T00:08:27Z,42.805,6.029,13.3029,4.60021,2469.984,2019-7-19T02:08:45Z
2019-07-19T00:11:30Z,42.805,6.029,13.3006,4.60016,2469.984,2019-7-19T02:11:48Z
2019-07-19T00:14:33Z,42.805,6.029,13.3006,4.60010,2469.97,2019-7-19T02:14:52Z
2019-07-19T00:17:36Z,42.805,6.029,13.2986,4.59994,2469.947,2019-7-19T02:17:55Z
2019-07-19T00:20:39Z,42.805,6.029,13.2985,4.59987,2469.97,2019-7-19T02:20:58Z
2019-07-19T00:23:43Z,42.805,6.029,13.2994,4.60002,2469.97,2019-7-19T02:24:01Z
2019-07-19T00:26:46Z,42.805,6.029,13.2977,4.59994,2469.97,2019-7-19T02:27:04Z
2019-07-19T00:29:49Z,42.805,6.029,13.2979,4.60023,2469.984,2019-7-19T02:30:08Z
2019-07-19T00:32:52Z,42.805,6.029,13.2964,4.60010,2469.96,2019-7-19T02:33:11Z
2019-07-19T00:35:55Z,42.805,6.029,13.2982,4.60025,2469.984,2019-7-19T02:36:14Z
2019-07-19T00:38:58Z,42.805,6.029,13.3000,4.59981,2469.96,2019-7-19T02:39:17Z
2019-07-19T00:42:02Z,42.805,6.029,13.2996,4.59997,2469.97,2019-7-19T02:42:20Z
2019-07-19T00:45:05Z,42.805,6.029,13.3000,4.60021,2469.96,2019-7-19T02:45:23Z
2019-07-19T00:48:08Z,42.805,6.029,13.3019,4.59982,2469.923,2019-7-19T02:48:27Z
2019-07-19T00:51:11Z,42.805,6.029,13.2987,4.59989,2469.937,2019-7-19T02:51:30Z
2019-07-19T00:54:14Z,42.805,6.029,13.2995,4.60029,2469.96,2019-7-19T02:54:33Z
2019-07-19T00:57:18Z,42.805,6.029,13.2977,4.60009,2469.923,2019-7-19T02:57:36Z
2019-07-19T01:00:21Z,42.805,6.029,13.2991,4.60012,2469.96,2019-7-19T03:00:40Z
2019-07-19T01:03:24Z,42.805,6.029,13.2976,4.60010,2469.96,2019-7-19T03:03:43Z
2019-07-19T01:06:27Z,42.805,6.029,13.2970,4.60009,2469.923,2019-7-19T03:06:46Z
2019-07-19T01:09:31Z,42.805,6.029,13.2985,4.60009,2469.947,2019-7-19T03:09:49Z
2019-07-19T01:12:34Z,42.805,6.029,13.3011,4.60133,2469.947,2019-7-19T03:12:52Z
2019-07-19T01:15:37Z,42.805,6.029,13.3026,4.60079,2469.937,2019-7-19T03:15:56Z
2019-07-19T01:18:40Z,42.805,6.029,13.3022,4.60042,2469.914,2019-7-19T03:18:59Z
2019-07-19T01:21:43Z,42.805,6.029,13.3022,4.60032,2469.9,2019-7-19T03:22:02Z
2019-07-19T01:24:47Z,42.805,6.029,13.3009,4.60041,2469.937,2019-7-19T03:25:05Z
2019-07-19T01:27:50Z,42.805,6.029,13.3022,4.60049,2469.89,2019-7-19T03:28:08Z
2019-07-19T01:30:53Z,42.805,6.029,13.3021,4.60055,2469.937,2019-7-19T03:31:12Z
2019-07-19T01:33:56Z,42.805,6.029,13.2980,4.60049,2469.853,2019-7-19T03:34:15Z
2019-07-19T01:36:59Z,42.805,6.029,13.3030,4.60030,2469.923,2019-7-19T03:37:18Z
2019-07-19T01:40:03Z,42.805,6.029,13.3009,4.60039,2469.876,2019-7-19T03:40:21Z
2019-07-19T01:43:06Z,42.805,6.029,13.3015,4.60064,2469.9,2019-7-19T03:43:24Z
2019-07-19T01:46:09Z,42.805,6.029,13.3019,4.60045,2469.9,2019-7-19T03:46:28Z
2019-07-19T01:49:12Z,42.805,6.029,13.3034,4.60031,2469.9,2019-7-19T03:49:31Z
2019-07-19T01:52:15Z,42.805,6.029,13.2982,4.60042,2469.937,2019-7-19T03:52:34Z
2019-07-19T01:55:19Z,42.805,6.029,13.2983,4.60054,2469.89,2019-7-19T03:55:37Z
2019-07-19T01:58:22Z,42.805,6.029,13.3011,4.60039,2469.89,2019-7-19T03:58:40Z
2019-07-19T02:01:25Z,42.805,6.029,13.2982,4.60052,2469.914,2019-7-19T04:01:44Z
2019-07-19T02:04:28Z,42.805,6.029,13.3007,4.60043,2469.876,2019-7-19T04:04:47Z
2019-07-19T02:07:32Z,42.805,6.029,13.2986,4.60045,2469.876,2019-7-19T04:07:50Z
2019-07-19T02:10:35Z,42.805,6.029,13.2998,4.60050,2469.876,2019-7-19T04:10:54Z
2019-07-19T02:13:38Z,42.805,6.029,13.2993,4.60039,2469.876,2019-7-19T04:13:57Z
2019-07-19T02:16:41Z,42.805,6.029,13.2980,4.60049,2469.914,2019-7-19T04:17:00Z
2019-07-19T02:19:44Z,42.805,6.029,13.2986,4.60055,2469.876,2019-7-19T04:20:03Z
2019-07-19T02:22:48Z,42.805,6.029,13.3011,4.60047,2469.876,2019-7-19T04:23:06Z
2019-07-19T02:25:51Z,42.805,6.029,13.3015,4.60029,2469.914,2019-7-19T04:26:09Z
2019-07-19T02:28:54Z,42.805,6.029,13.2999,4.60034,2469.9,2019-7-19T04:29:13Z
2019-07-19T02:31:57Z,42.805,6.029,13.3004,4.60035,2469.914,2019-7-19T04:32:16Z
2019-07-19T02:35:00Z,42.805,6.029,13.3010,4.60011,2469.853,2019-7-19T04:35:19Z
2019-07-19T02:38:04Z,42.805,6.029,13.3008,4.60020,2469.876,2019-7-19T04:38:22Z
2019-07-19T02:41:07Z,42.805,6.029,13.3010,4.60031,2469.9,2019-7-19T04:41:25Z
2019-07-19T02:44:10Z,42.805,6.029,13.3011,4.60041,2469.9,2019-7-19T04:44:29Z
2019-07-19T02:47:13Z,42.805,6.029,13.3004,4.60031,2469.914,2019-7-19T04:47:32Z
2019-07-19T02:50:16Z,42.805,6.029,13.2983,4.60040,2469.923,2019-7-19T04:50:35Z
2019-07-19T02:53:20Z,42.805,6.029,13.2968,4.60024,2469.853,2019-7-19T04:53:38Z
2019-07-19T02:56:23Z,42.805,6.029,13.2986,4.60011,2469.853,2019-7-19T04:56:41Z
2019-07-19T02:59:26Z,42.805,6.029,13.2999,4.60033,2469.9,2019-7-19T04:59:45Z
2019-07-19T03:02:29Z,42.805,6.029,13.2994,4.60044,2469.89,2019-7-19T05:02:48Z
2019-07-19T03:05:32Z,42.805,6.029,13.2987,4.60044,2469.914,2019-7-19T05:05:51Z
2019-07-19T03:08:36Z,42.805,6.029,13.2967,4.59976,2469.9,2019-7-19T05:08:54Z
2019-07-19T03:11:39Z,42.805,6.029,13.2970,4.60005,2469.923,2019-7-19T05:11:57Z
2019-07-19T03:14:42Z,42.805,6.029,13.2993,4.60033,2469.867,2019-7-19T05:15:01Z
2019-07-19T03:17:45Z,42.805,6.029,13.2993,4.60020,2469.853,2019-7-19T05:18:04Z
2019-07-19T03:20:48Z,42.805,6.029,13.2996,4.60019,2469.89,2019-7-19T05:21:07Z
2019-07-19T03:23:52Z,42.805,6.029,13.2997,4.59999,2469.9,2019-7-19T05:24:10Z
2019-07-19T03:26:55Z,42.805,6.029,13.2996,4.60027,2469.867,2019-7-19T05:27:14Z
2019-07-19T03:29:58Z,42.805,6.029,13.2988,4.60019,2469.853,2019-7-19T05:30:17Z
2019-07-19T03:33:01Z,42.805,6.029,13.2983,4.60041,2469.867,2019-7-19T05:33:20Z
2019-07-19T03:36:05Z,42.805,6.029,13.2995,4.60021,2469.853,2019-7-19T05:36:23Z
2019-07-19T03:39:08Z,42.805,6.029,13.2982,4.60007,2469.853,2019-7-19T05:39:26Z
2019-07-19T03:42:11Z,42.805,6.029,13.2979,4.59999,2469.867,2019-7-19T05:42:30Z
2019-07-19T03:45:14Z,42.805,6.029,13.2990,4.60025,2469.923,2019-7-19T05:45:33Z
2019-07-19T03:48:17Z,42.805,6.029,13.2989,4.60049,2469.89,2019-7-19T05:48:36Z
2019-07-19T03:51:21Z,42.805,6.029,13.3021,4.60033,2469.89,2019-7-19T05:51:39Z
2019-07-19T03:54:24Z,42.805,6.029,13.3000,4.60043,2469.914,2019-7-19T05:54:42Z
2019-07-19T03:57:27Z,42.805,6.029,13.2976,4.60029,2469.867,2019-7-19T05:57:45Z
2019-07-19T04:00:30Z,42.805,6.029,13.2983,4.60024,2469.853,2019-7-19T06:00:49Z
2019-07-19T04:03:33Z,42.805,6.029,13.2996,4.60031,2469.89,2019-7-19T06:03:52Z
2019-07-19T04:06:36Z,42.805,6.029,13.3003,4.60031,2469.89,2019-7-19T06:06:55Z
2019-07-19T04:09:40Z,42.805,6.029,13.3009,4.60002,2469.89,2019-7-19T06:09:58Z
2019-07-19T04:12:43Z,42.805,6.029,13.3001,4.60044,2469.876,2019-7-19T06:13:01Z
2019-07-19T04:15:46Z,42.805,6.029,13.2995,4.60029,2469.876,2019-7-19T06:16:05Z
2019-07-19T04:18:49Z,42.805,6.029,13.3006,4.60045,2469.89,2019-7-19T06:19:08Z
2019-07-19T04:21:52Z,42.805,6.029,13.2995,4.60033,2469.923,2019-7-19T06:22:11Z
2019-07-19T04:24:56Z,42.805,6.029,13.2976,4.60059,2469.876,2019-7-19T06:25:14Z
2019-07-19T04:27:59Z,42.805,6.029,13.2992,4.60010,2469.9,2019-7-19T06:28:17Z
2019-07-19T04:31:02Z,42.805,6.029,13.2993,4.60028,2469.867,2019-7-19T06:31:21Z
2019-07-19T04:34:05Z,42.805,6.029,13.2977,4.60031,2469.89,2019-7-19T06:34:24Z
2019-07-19T04:37:08Z,42.805,6.029,13.3009,4.60023,2469.9,2019-7-19T06:37:27Z
2019-07-19T04:40:12Z,42.805,6.029,13.2974,4.60001,2469.914,2019-7-19T06:40:30Z
2019-07-19T04:43:15Z,42.805,6.029,13.2997,4.60039,2469.853,2019-7-19T06:43:33Z
2019-07-19T04:46:18Z,42.805,6.029,13.2991,4.60032,2469.914,2019-7-19T06:46:37Z
2019-07-19T04:49:21Z,42.805,6.029,13.3014,4.60017,2469.89,2019-7-19T06:49:40Z
2019-07-19T04:52:24Z,42.805,6.029,13.3003,4.60023,2469.9,2019-7-19T06:52:43Z
2019-07-19T04:55:28Z,42.805,6.029,13.2971,4.60043,2469.914,2019-7-19T06:55:46Z
2019-07-19T04:58:31Z,42.805,6.029,13.2998,4.60009,2469.876,2019-7-19T06:58:49Z
2019-07-19T05:01:34Z,42.805,6.029,13.3000,4.60015,2469.923,2019-7-19T07:01:53Z
2019-07-19T05:04:37Z,42.805,6.029,13.3008,4.60017,2469.89,2019-7-19T07:04:56Z
2019-07-19T05:07:40Z,42.805,6.029,13.3013,4.60012,2469.89,2019-7-19T07:07:59Z
2019-07-19T05:10:44Z,42.805,6.029,13.3004,4.60038,2469.89,2019-7-19T07:11:02Z
2019-07-19T05:13:47Z,42.805,6.029,13.3005,4.60016,2469.876,2019-7-19T07:14:06Z
2019-07-19T05:16:50Z,42.805,6.029,13.2996,4.60017,2469.923,2019-7-19T07:17:09Z
2019-07-19T05:19:53Z,42.805,6.029,13.2992,4.60006,2469.9,2019-7-19T07:20:12Z
2019-07-19T05:22:57Z,42.805,6.029,13.2995,4.60019,2469.9,2019-7-19T07:23:15Z
2019-07-19T05:26:00Z,42.805,6.029,13.2994,4.60032,2469.9,2019-7-19T07:26:18Z
2019-07-19T05:29:03Z,42.805,6.029,13.2980,4.60044,2469.914,2019-7-19T07:29:22Z
2019-07-19T05:32:06Z,42.805,6.029,13.3004,4.59998,2469.9,2019-7-19T07:32:25Z
2019-07-19T05:35:09Z,42.805,6.029,13.3003,4.60025,2469.9,2019-7-19T07:35:28Z
2019-07-19T05:38:12Z,42.805,6.029,13.2999,4.60027,2469.914,2019-7-19T07:38:31Z
2019-07-19T05:41:16Z,42.805,6.029,13.3006,4.60025,2469.923,2019-7-19T07:41:34Z
2019-07-19T05:44:19Z,42.805,6.029,13.3014,4.60021,2469.914,2019-7-19T07:44:38Z
2019-07-19T05:47:22Z,42.805,6.029,13.3007,4.60017,2469.89,2019-7-19T07:47:41Z
2019-07-19T05:50:25Z,42.805,6.029,13.3001,4.60031,2469.914,2019-7-19T07:50:44Z
2019-07-19T05:53:29Z,42.805,6.029,13.2999,4.60031,2469.923,2019-7-19T07:53:47Z
2019-07-19T05:56:32Z,42.805,6.029,13.2982,4.60034,2469.937,2019-7-19T07:56:50Z
2019-07-19T05:59:35Z,42.805,6.029,13.2994,4.60024,2469.923,2019-7-19T07:59:54Z
2019-07-19T06:02:38Z,42.805,6.029,13.2986,4.60008,2469.923,2019-7-19T08:02:57Z
2019-07-19T06:05:41Z,42.805,6.029,13.3000,4.60001,2469.937,2019-7-19T08:06:00Z
2019-07-19T06:08:45Z,42.805,6.029,13.2980,4.60021,2469.937,2019-7-19T08:09:03Z
2019-07-19T06:11:48Z,42.805,6.029,13.3005,4.60022,2469.947,2019-7-19T08:12:07Z
2019-07-19T06:14:51Z,42.805,6.029,13.3000,4.60031,2469.923,2019-7-19T08:15:10Z
2019-07-19T06:17:54Z,42.805,6.029,13.3017,4.60023,2469.923,2019-7-19T08:18:13Z
2019-07-19T06:20:58Z,42.805,6.029,13.2998,4.60040,2469.937,2019-7-19T08:21:16Z
2019-07-19T06:24:01Z,42.805,6.029,13.3013,4.60027,2469.923,2019-7-19T08:24:19Z
2019-07-19T06:27:04Z,42.805,6.029,13.3002,4.60026,2469.96,2019-7-19T08:27:23Z
2019-07-19T06:30:07Z,42.805,6.029,13.2996,4.59994,2469.923,2019-7-19T08:30:26Z
2019-07-19T06:33:10Z,42.805,6.029,13.2978,4.60033,2469.96,2019-7-19T08:33:29Z
2019-07-19T06:36:14Z,42.805,6.029,13.2992,4.60036,2469.923,2019-7-19T08:36:32Z
2019-07-19T06:39:17Z,42.805,6.029,13.2981,4.60025,2469.947,2019-7-19T08:39:36Z
2019-07-19T06:42:20Z,42.805,6.029,13.3010,4.60016,2469.96,2019-7-19T08:42:39Z
2019-07-19T06:45:23Z,42.805,6.029,13.3002,4.60021,2469.914,2019-7-19T08:45:42Z
2019-07-19T06:48:27Z,42.805,6.029,13.3007,4.60024,2469.984,2019-7-19T08:48:45Z
2019-07-19T06:51:30Z,42.805,6.029,13.3004,4.60019,2469.937,2019-7-19T08:51:48Z
2019-07-19T06:54:33Z,42.805,6.029,13.2993,4.60036,2469.96,2019-7-19T08:54:52Z
2019-07-19T06:57:36Z,42.805,6.029,13.3004,4.60005,2469.933,2019-7-19T08:57:55Z
2019-07-19T07:00:39Z,42.805,6.029,13.2970,4.60032,2469.96,2019-7-19T09:00:58Z
2019-07-19T07:03:43Z,42.805,6.029,13.2995,4.60045,2469.96,2019-7-19T09:04:01Z
2019-07-19T07:06:46Z,42.805,6.029,13.2991,4.60026,2469.984,2019-7-19T09:07:04Z
2019-07-19T07:09:49Z,42.805,6.029,13.2984,4.60021,2469.947,2019-7-19T09:10:08Z
2019-07-19T07:12:52Z,42.805,6.029,13.3004,4.60000,2469.97,2019-7-19T09:13:11Z
2019-07-19T07:15:55Z,42.805,6.029,13.2993,4.60019,2469.984,2019-7-19T09:16:14Z
2019-07-19T07:18:58Z,42.805,6.029,13.2993,4.60019,2469.96,2019-7-19T09:19:17Z
2019-07-19T07:22:02Z,42.805,6.029,13.3008,4.60025,2469.984,2019-7-19T09:22:20Z
2019-07-19T07:25:05Z,42.805,6.029,13.3004,4.60036,2469.947,2019-7-19T09:25:24Z
2019-07-19T07:28:08Z,42.805,6.029,13.3002,4.60046,2469.947,2019-7-19T09:28:27Z
2019-07-19T07:31:11Z,42.805,6.029,13.2998,4.60031,2469.97,2019-7-19T09:31:30Z
2019-07-19T07:34:14Z,42.805,6.029,13.3000,4.60027,2469.984,2019-7-19T09:34:33Z
2019-07-19T07:37:18Z,42.805,6.029,13.2979,4.60024,2469.984,2019-7-19T09:37:36Z
2019-07-19T07:40:21Z,42.805,6.029,13.2986,4.60029,2470.007,2019-7-19T09:40:39Z
2019-07-19T07:43:24Z,42.805,6.029,13.3015,4.60062,2470.007,2019-7-19T09:43:43Z
2019-07-19T07:46:27Z,42.805,6.029,13.3013,4.60040,2470.007,2019-7-19T09:46:46Z
2019-07-19T07:49:30Z,42.805,6.029,13.2990,4.60011,2469.984,2019-7-19T09:49:49Z
2019-07-19T07:52:34Z,42.805,6.029,13.2993,4.60009,2470.017,2019-7-19T09:52:52Z
2019-07-19T07:55:37Z,42.805,6.029,13.2982,4.60001,2470.017,2019-7-19T09:55:55Z
2019-07-19T07:58:40Z,42.805,6.029,13.3004,4.60014,2469.97,2019-7-19T09:58:59Z
2019-07-19T08:01:43Z,42.805,6.029,13.2983,4.60027,2470.007,2019-7-19T10:02:02Z
2019-07-19T08:04:46Z,42.805,6.029,13.2991,4.60035,2469.993,2019-7-19T10:05:05Z
2019-07-19T08:07:50Z,42.805,6.029,13.2987,4.60039,2469.97,2019-7-19T10:08:08Z
2019-07-19T08:10:53Z,42.805,6.029,13.3001,4.59983,2469.993,2019-7-19T10:11:11Z
2019-07-19T08:13:56Z,42.805,6.029,13.2985,4.59991,2469.984,2019-7-19T10:14:15Z
2019-07-19T08:16:59Z,42.805,6.029,13.2982,4.60019,2469.993,2019-7-19T10:17:18Z
2019-07-19T08:20:02Z,42.805,6.029,13.3000,4.59991,2469.984,2019-7-19T10:20:21Z
2019-07-19T08:23:06Z,42.805,6.029,13.2986,4.60026,2469.993,2019-7-19T10:23:24Z
2019-07-19T08:26:09Z,42.805,6.029,13.3014,4.60043,2469.97,2019-7-19T10:26:27Z
2019-07-19T08:29:12Z,42.805,6.029,13.3003,4.60000,2469.97,2019-7-19T10:29:31Z
2019-07-19T08:32:15Z,42.805,6.029,13.3002,4.59991,2469.979,2019-7-19T10:32:34Z
2019-07-19T08:35:18Z,42.805,6.029,13.2991,4.60004,2469.956,2019-7-19T10:35:37Z
2019-07-19T08:43:08Z,42.805,6.029,13.2974,4.60004,2469.984,2019-7-19T10:43:27Z
2019-07-19T08:46:11Z,42.805,6.029,13.3009,4.60000,2470.007,2019-7-19T10:46:30Z
2019-07-19T08:49:15Z,42.805,6.029,13.2969,4.60032,2469.97,2019-7-19T10:49:33Z
2019-07-19T08:52:18Z,42.805,6.029,13.2982,4.60016,2469.993,2019-7-19T10:52:36Z
2019-07-19T08:55:21Z,42.805,6.029,13.2986,4.60035,2469.97,2019-7-19T10:55:40Z
2019-07-19T08:58:24Z,42.805,6.029,13.2978,4.59988,2469.96,2019-7-19T10:58:43Z
2019-07-19T09:01:27Z,42.805,6.029,13.3007,4.60016,2469.993,2019-7-19T11:01:46Z
2019-07-19T09:04:31Z,42.805,6.029,13.3008,4.60031,2469.97,2019-7-19T11:04:49Z
2019-07-19T09:07:34Z,42.805,6.029,13.3011,4.59996,2470.017,2019-7-19T11:07:52Z
2019-07-19T09:10:37Z,42.805,6.029,13.2973,4.59983,2470.007,2019-7-19T11:10:56Z
2019-07-19T09:13:40Z,42.805,6.029,13.2985,4.59978,2470.03,2019-7-19T11:13:59Z
2019-07-19T09:16:43Z,42.805,6.029,13.2996,4.59977,2469.937,2019-7-19T11:17:02Z
2019-07-19T09:19:47Z,42.805,6.029,13.2984,4.59981,2469.96,2019-7-19T11:20:05Z
2019-07-19T09:22:50Z,42.805,6.029,13.2991,4.60019,2469.97,2019-7-19T11:23:08Z
2019-07-19T09:25:53Z,42.805,6.029,13.2987,4.60005,2469.923,2019-7-19T11:26:12Z
2019-07-19T09:28:56Z,42.805,6.029,13.2993,4.59994,2469.937,2019-7-19T11:29:15Z
2019-07-19T09:31:59Z,42.805,6.029,13.2968,4.59995,2469.947,2019-7-19T11:32:18Z
2019-07-19T09:35:03Z,42.805,6.029,13.2969,4.60008,2469.96,2019-7-19T11:35:21Z
2019-07-19T09:38:06Z,42.805,6.029,13.2979,4.59975,2469.984,2019-7-19T11:38:25Z
2019-07-19T09:41:09Z,42.805,6.029,13.2987,4.59984,2469.947,2019-7-19T11:41:28Z
2019-07-19T09:44:12Z,42.805,6.029,13.2978,4.59973,2469.96,2019-7-19T11:44:31Z
2019-07-19T09:47:15Z,42.805,6.029,13.2982,4.59978,2469.933,2019-7-19T11:47:34Z
2019-07-19T09:50:19Z,42.805,6.029,13.2969,4.59966,2469.947,2019-7-19T11:50:37Z
2019-07-19T09:53:22Z,42.805,6.029,13.2976,4.59980,2469.984,2019-7-19T11:53:41Z
2019-07-19T09:56:25Z,42.805,6.029,13.2970,4.59991,2469.937,2019-7-19T11:56:44Z
2019-07-19T09:59:28Z,42.805,6.029,13.2964,4.59973,2469.96,2019-7-19T11:59:47Z
2019-07-19T10:02:32Z,42.805,6.029,13.2963,4.59973,2469.937,2019-7-19T12:02:50Z
2019-07-19T10:05:35Z,42.805,6.029,13.2969,4.59976,2469.947,2019-7-19T12:05:53Z
2019-07-19T10:08:38Z,42.805,6.029,13.2976,4.59963,2469.947,2019-7-19T12:08:57Z
2019-07-19T10:11:41Z,42.805,6.029,13.2969,4.59980,2469.914,2019-7-19T12:12:00Z
2019-07-19T10:14:44Z,42.805,6.029,13.2979,4.59986,2469.923,2019-7-19T12:15:03Z
2019-07-19T10:17:47Z,42.805,6.029,13.2968,4.59981,2469.923,2019-7-19T12:18:06Z
2019-07-19T10:20:51Z,42.805,6.029,13.2968,4.59996,2469.9,2019-7-19T12:21:09Z
2019-07-19T10:23:54Z,42.805,6.029,13.2965,4.59977,2469.914,2019-7-19T12:24:12Z
2019-07-19T10:26:57Z,42.805,6.029,13.2968,4.59990,2469.947,2019-7-19T12:27:16Z
2019-07-19T10:30:00Z,42.805,6.029,13.2968,4.59979,2469.914,2019-7-19T12:30:19Z
2019-07-19T10:33:03Z,42.805,6.029,13.2969,4.59972,2469.914,2019-7-19T12:33:22Z
2019-07-19T10:36:07Z,42.805,6.029,13.2971,4.59976,2469.914,2019-7-19T12:36:25Z
2019-07-19T10:39:10Z,42.805,6.029,13.2968,4.59978,2469.96,2019-7-19T12:39:29Z
2019-07-19T10:42:13Z,42.805,6.029,13.2971,4.59981,2469.876,2019-7-19T12:42:32Z
2019-07-19T10:45:16Z,42.805,6.029,13.2970,4.59985,2469.937,2019-7-19T12:45:35Z
2019-07-19T10:48:20Z,42.805,6.029,13.2967,4.59976,2469.947,2019-7-19T12:48:38Z
2019-07-19T10:51:23Z,42.805,6.029,13.2986,4.59966,2469.9,2019-7-19T12:51:41Z
2019-07-19T10:54:26Z,42.805,6.029,13.2975,4.59979,2469.9,2019-7-19T12:54:45Z
2019-07-19T10:57:29Z,42.805,6.029,13.2976,4.59981,2469.923,2019-7-19T12:57:48Z
2019-07-19T11:00:32Z,42.805,6.029,13.2974,4.59972,2469.89,2019-7-19T13:00:51Z
2019-07-19T11:03:36Z,42.805,6.029,13.2969,4.59973,2469.9,2019-7-19T13:03:54Z
2019-07-19T11:06:39Z,42.805,6.029,13.2968,4.59972,2469.937,2019-7-19T13:06:57Z
2019-07-19T11:09:42Z,42.805,6.029,13.2968,4.59971,2469.9,2019-7-19T13:10:01Z
2019-07-19T11:12:45Z,42.805,6.029,13.2980,4.59970,2469.937,2019-7-19T13:13:04Z
2019-07-19T11:15:48Z,42.805,6.029,13.2965,4.59995,2469.876,2019-7-19T13:16:07Z
2019-07-19T11:18:52Z,42.805,6.029,13.2967,4.59996,2469.9,2019-7-19T13:19:10Z
2019-07-19T11:21:55Z,42.805,6.029,13.2978,4.59970,2469.914,2019-7-19T13:22:13Z
2019-07-19T11:24:58Z,42.805,6.029,13.2970,4.59981,2469.9,2019-7-19T13:25:17Z
2019-07-19T11:28:01Z,42.805,6.029,13.2970,4.59988,2469.867,2019-7-19T13:28:20Z
2019-07-19T11:31:04Z,42.805,6.029,13.2971,4.59973,2469.89,2019-7-19T13:31:23Z
2019-07-19T11:34:08Z,42.805,6.029,13.2975,4.59988,2469.876,2019-7-19T13:34:26Z
2019-07-19T11:37:11Z,42.805,6.029,13.2963,4.59996,2469.89,2019-7-19T13:37:29Z
2019-07-19T11:40:14Z,42.805,6.029,13.3000,4.59976,2469.9,2019-7-19T13:40:33Z
2019-07-19T11:43:17Z,42.805,6.029,13.2974,4.59986,2469.876,2019-7-19T13:43:36Z
2019-07-19T11:46:20Z,42.805,6.029,13.2979,4.59986,2469.876,2019-7-19T13:46:39Z
2019-07-19T11:49:24Z,42.805,6.029,13.2993,4.59972,2469.89,2019-7-19T13:49:42Z
2019-07-19T11:52:27Z,42.805,6.029,13.2979,4.59973,2469.853,2019-7-19T13:52:45Z
2019-07-19T11:55:30Z,42.805,6.029,13.2975,4.59978,2469.876,2019-7-19T13:55:49Z
2019-07-19T11:58:33Z,42.805,6.029,13.2973,4.59983,2469.876,2019-7-19T13:58:52Z
2019-07-19T12:01:36Z,42.805,6.029,13.2983,4.59983,2469.89,2019-7-19T14:01:55Z
2019-07-19T12:04:40Z,42.805,6.029,13.2968,4.60010,2469.876,2019-7-19T14:04:58Z
2019-07-19T12:07:43Z,42.805,6.029,13.2966,4.59986,2469.876,2019-7-19T14:08:01Z
2019-07-19T12:10:46Z,42.805,6.029,13.2980,4.59996,2469.876,2019-7-19T14:11:05Z
2019-07-19T12:13:49Z,42.805,6.029,13.2974,4.60017,2469.844,2019-7-19T14:14:08Z
2019-07-19T12:16:52Z,42.805,6.029,13.2978,4.59996,2469.867,2019-7-19T14:17:11Z
2019-07-19T12:19:56Z,42.805,6.029,13.2986,4.59987,2469.867,2019-7-19T14:20:14Z
2019-07-19T12:22:59Z,42.805,6.029,13.2973,4.59973,2469.844,2019-7-19T14:23:17Z
2019-07-19T12:26:02Z,42.805,6.029,13.2977,4.59971,2469.867,2019-7-19T14:26:21Z
2019-07-19T12:29:05Z,42.805,6.029,13.2972,4.59974,2469.853,2019-7-19T14:29:24Z
2019-07-19T12:32:08Z,42.805,6.029,13.2964,4.59982,2469.853,2019-7-19T14:32:27Z
2019-07-19T12:35:12Z,42.805,6.029,13.2983,4.59993,2469.876,2019-7-19T14:35:30Z
2019-07-19T12:38:15Z,42.805,6.029,13.2982,4.59971,2469.867,2019-7-19T14:38:33Z
2019-07-19T12:41:18Z,42.805,6.029,13.2968,4.60006,2469.844,2019-7-19T14:41:37Z
2019-07-19T12:44:21Z,42.805,6.029,13.2974,4.59990,2469.867,2019-7-19T14:44:40Z
2019-07-19T12:47:24Z,42.805,6.029,13.2989,4.59965,2469.867,2019-7-19T14:47:43Z
2019-07-19T12:50:28Z,42.805,6.029,13.2981,4.59963,2469.867,2019-7-19T14:50:46Z
2019-07-19T12:53:31Z,42.805,6.029,13.2966,4.59994,2469.858,2019-7-19T14:53:49Z
2019-07-19T12:56:34Z,42.805,6.029,13.2984,4.59962,2469.876,2019-7-19T14:56:53Z
2019-07-19T12:59:37Z,42.805,6.029,13.2974,4.59988,2469.867,2019-7-19T14:59:56Z
2019-07-19T13:02:40Z,42.805,6.029,13.2973,4.59975,2469.867,2019-7-19T15:02:59Z
2019-07-19T13:05:44Z,42.805,6.029,13.2971,4.59984,2469.867,2019-7-19T15:06:02Z
2019-07-19T13:08:47Z,42.805,6.029,13.2976,4.59968,2469.89,2019-7-19T15:09:05Z
2019-07-19T13:11:50Z,42.805,6.029,13.2978,4.59996,2469.867,2019-7-19T15:12:09Z
2019-07-19T13:14:53Z,42.805,6.029,13.2980,4.59990,2469.83,2019-7-19T15:15:12Z
2019-07-19T13:17:56Z,42.805,6.029,13.2975,4.59987,2469.844,2019-7-19T15:18:15Z
2019-07-19T13:21:00Z,42.805,6.029,13.2991,4.59979,2469.83,2019-7-19T15:21:18Z
2019-07-19T13:24:03Z,42.805,6.029,13.2983,4.59998,2469.806,2019-7-19T15:24:21Z
2019-07-19T13:27:06Z,42.805,6.029,13.2979,4.59985,2469.844,2019-7-19T15:27:25Z
2019-07-19T13:30:09Z,42.805,6.029,13.2974,4.59982,2469.844,2019-7-19T15:30:28Z
2019-07-19T13:33:12Z,42.805,6.029,13.2986,4.59987,2469.83,2019-7-19T15:33:31Z
2019-07-19T13:36:15Z,42.805,6.029,13.2978,4.59981,2469.867,2019-7-19T15:36:34Z
2019-07-19T13:39:19Z,42.805,6.029,13.2993,4.59976,2469.83,2019-7-19T15:39:37Z
2019-07-19T13:42:22Z,42.805,6.029,13.2976,4.59988,2469.867,2019-7-19T15:42:41Z
2019-07-19T13:45:25Z,42.805,6.029,13.2986,4.59985,2469.83,2019-7-19T15:45:44Z
2019-07-19T13:48:28Z,42.805,6.029,13.2986,4.59968,2469.867,2019-7-19T15:48:47Z
2019-07-19T13:51:32Z,42.805,6.029,13.2983,4.59982,2469.844,2019-7-19T15:51:50Z
2019-07-19T13:54:35Z,42.805,6.029,13.2976,4.59985,2469.783,2019-7-19T15:54:53Z
2019-07-19T13:57:38Z,42.805,6.029,13.2976,4.59973,2469.821,2019-7-19T15:57:57Z
2019-07-19T14:00:41Z,42.805,6.029,13.2978,4.59988,2469.853,2019-7-19T16:01:00Z
2019-07-19T14:03:44Z,42.805,6.029,13.2990,4.59969,2469.783,2019-7-19T16:04:03Z
2019-07-19T14:06:48Z,42.805,6.029,13.2993,4.59984,2469.806,2019-7-19T16:07:06Z
2019-07-19T14:09:51Z,42.805,6.029,13.2982,4.59982,2469.83,2019-7-19T16:10:09Z
2019-07-19T14:12:54Z,42.805,6.029,13.2968,4.59966,2469.797,2019-7-19T16:13:13Z
2019-07-19T14:15:57Z,42.805,6.029,13.2968,4.59993,2469.821,2019-7-19T16:16:16Z
2019-07-19T14:19:00Z,42.805,6.029,13.2973,4.59981,2469.797,2019-7-19T16:19:19Z
2019-07-19T14:22:04Z,42.805,6.029,13.2987,4.59982,2469.83,2019-7-19T16:22:22Z
2019-07-19T14:25:07Z,42.805,6.029,13.2986,4.59996,2469.844,2019-7-19T16:25:25Z
2019-07-19T14:28:10Z,42.805,6.029,13.2973,4.59998,2469.83,2019-7-19T16:28:29Z
2019-07-19T14:31:13Z,42.805,6.029,13.2981,4.59986,2469.821,2019-7-19T16:31:32Z
2019-07-19T14:34:16Z,42.805,6.029,13.2983,4.59971,2469.821,2019-7-19T16:34:35Z
2019-07-19T14:37:20Z,42.805,6.029,13.2991,4.59995,2469.821,2019-7-19T16:37:38Z
2019-07-19T14:40:23Z,42.805,6.029,13.2976,4.59991,2469.821,2019-7-19T16:40:41Z
2019-07-19T14:43:26Z,42.805,6.029,13.2997,4.59992,2469.821,2019-7-19T16:43:45Z
2019-07-19T14:46:29Z,42.805,6.029,13.3002,4.59987,2469.83,2019-7-19T16:46:48Z
2019-07-19T14:49:32Z,42.805,6.029,13.2996,4.59980,2469.821,2019-7-19T16:49:51Z
2019-07-19T14:52:36Z,42.805,6.029,13.2990,4.59985,2469.821,2019-7-19T16:52:54Z
2019-07-19T14:55:39Z,42.805,6.029,13.2996,4.59978,2469.783,2019-7-19T16:55:57Z
2019-07-19T14:58:42Z,42.805,6.029,13.2975,4.59991,2469.783,2019-7-19T16:59:01Z
2019-07-19T15:01:45Z,42.805,6.029,13.2990,4.60003,2469.853,2019-7-19T17:02:04Z
2019-07-19T15:04:48Z,42.805,6.029,13.2974,4.59996,2469.783,2019-7-19T17:05:07Z
2019-07-19T15:07:52Z,42.805,6.029,13.3001,4.59983,2469.821,2019-7-19T17:08:10Z
2019-07-19T15:10:55Z,42.805,6.029,13.2975,4.59981,2469.806,2019-7-19T17:11:13Z
2019-07-19T15:13:58Z,42.805,6.029,13.2991,4.60019,2469.821,2019-7-19T17:14:17Z
2019-07-19T15:17:01Z,42.805,6.029,13.3004,4.60001,2469.806,2019-7-19T17:17:20Z
2019-07-19T15:20:04Z,42.805,6.029,13.2967,4.60010,2469.83,2019-7-19T17:20:23Z